Printer-friendly version

IAU Minor Planet Center

Minor Planet Center

MPEC 2006-K83 : 2006 KK103

The following Minor Planet Electronic Circular may be linked-to from your own Web pages, but must not otherwise be redistributed electronically.


Read MPEC 2006-K82 Read MPEC 2006-L01


M.P.E.C. 2006-K83                                Issued 2006 May 31, 22:48 UT

     The Minor Planet Electronic Circulars contain information on unusual
         minor planets and routine data on comets.  They are published
   on behalf of Commission 20 of the International Astronomical Union by the
          Minor Planet Center, Smithsonian Astrophysical Observatory,
                          Cambridge, MA 02138, U.S.A.

                  Supported in part by the Brinson Foundation
                  Supported in part by the TABASGO Foundation
             Prepared using the Tamkin Foundation Computer Network

                              MPC@CFA.HARVARD.EDU
          URL http://cfa-www.harvard.edu/iau/mpc.html  ISSN 1523-6714

                                  2006 KK103

Observations:
     K06KA3K* C2006 05 26.36455 16 26 24.18 -17 17 09.4          19.7 V EK083G96
     K06KA3K  C2006 05 26.36956 16 26 24.43 -17 17 22.6          19.8 V EK083G96
     K06KA3K  C2006 05 26.37464 16 26 24.68 -17 17 35.6          19.8 V EK083G96
     K06KA3K  C2006 05 26.37970 16 26 24.97 -17 17 48.5          19.6 V EK083G96
     K06KA3K  C2006 05 26.41300 16 26 26.77 -17 19 14.6          20.1 V EK083G96
     K06KA3K  C2006 05 26.41422 16 26 26.84 -17 19 17.6          19.8 V EK083G96
     K06KA3K  C2006 05 26.41542 16 26 26.91 -17 19 20.8          20.0 V EK083G96
     K06KA3K  C2006 05 26.41664 16 26 26.98 -17 19 23.9          19.9 V EK083G96
     K06KA3K  C2006 05 28.33566 16 28 45.08 -18 46 32.0                 EK083G96
     K06KA3K  C2006 05 28.33870 16 28 45.25 -18 46 41.0                 EK083G96
     K06KA3K  C2006 05 28.34183 16 28 45.47 -18 46 50.0                 EK083G96

Observer details:
G96 Mt. Lemmon Survey.  Observers E. J. Christensen, R. A. Kowalski.
    Measurers E. C. Beshore, E. J. Christensen, G. J. Garradd, A. R. Gibbs,
    A. D. Grauer, R. E. Hill, R. A. Kowalski, S. M. Larson, R. H. McNaught.
    1.5-m reflector + CCD.

Orbital elements:
2006 KK103                                               Earth MOID = 0.1404 AU
Epoch 2006 May 25.0 TT = JDT 2453880.5                  MPC
M 347.71569              (2000.0)            P               Q
n   0.31319575     Peri.  210.54180     +0.18426379     +0.97364803
a   2.1474619      Node    70.36196     -0.87047570     +0.22514571
e   0.4688713      Incl.    8.20253     -0.45641966     -0.03631702
P   3.15           H   22.5           G   0.15
From 11 observations 2006 May 26-28.

Ephemeris:
2006 KK103               a,e,i = 2.15, 0.47, 8                   q = 1.1406
Date    TT    R. A. (2000) Decl.     Delta      r     Elong.  Phase     V
2006 05 25    16 24.90   -16 19.0    0.206    1.218   173.7     5.3    19.9
2006 06 04    16 38.52   -24 44.0    0.170    1.185   176.9     2.6    19.3
2006 06 14    17 01.88   -36 08.9    0.148    1.160   165.9    12.3    19.4
2006 06 24    17 42.99   -48 33.4    0.141    1.145   154.3    22.6    19.6
2006 07 04    18 49.16   -58 02.8    0.148    1.141   144.9    30.9    20.0
2006 07 14    20 09.67   -61 54.5    0.165    1.147   139.3    35.3    20.3
2006 07 24    21 14.09   -61 02.0    0.190    1.163   137.5    36.1    20.7
2006 08 03    21 51.43   -57 45.8    0.221    1.189   138.3    34.5    21.0
2006 08 13    22 09.93   -53 32.3    0.259    1.224   140.5    31.8    21.4
2006 08 23    22 18.46   -48 56.5    0.303    1.266   142.6    29.0    21.7

Kyle E. Smalley              (C) Copyright 2006 MPC           M.P.E.C. 2006-K83

Read MPEC 2006-K82 Read MPEC 2006-L01


Our Web policy. Index to the CBAT/MPC/ICQ pages.


Valid HTML 4.01!